Location: Chuathbaluk
(61.5726°N, 159.2454°W)
Time: 04:37:43
(UTC+00:00)

Transit 4A - Pass Details

Date: 03 December 2020
Orbit: 864 x 980 km, 66.8° (Epoch: 26 January)

Event Time Altitude Azimuth Distance (km) Brightness Sun altitude
Rises 01:47:56 0° 310° (NW) 3,694 11.1 -2.8°
Reaches altitude 10° 01:50:35 10° 305° (NW) 2,739 10.5 -3.1°
Maximum altitude 01:56:45 51° 232° (SW) 1,203 9.1 -3.6°
Drops below altitude 10° 02:02:46 10° 159° (SSE) 2,677 10.6 -4.1°
Sets 02:05:20 0° 154° (SSE) 3,603 11.2 -4.4°
